[[{"header":{"parameterUnit":"m.s-1","parameterCategory":1,"la1":30.2991,"la2":30.254,"lo1":-89.0895,"lo2":-89.0444,"dy":0.0017,"dx":0.0017,"nx":28,"ny":28,"refTime":"2025-12-19T09:00:00:Z","depth":0,"parameterNumber":2,"parameterNumberName":"U-component_of_WINDS"},"data":[0,0,0,0,0,0,0,0,0,0,0,0,0,0,0,0,0,0,0,0,0,0,0,0,0,0,0,0,0,0,0,0,0,0,0,0,0,0,0,0,0,0,0,0,0,0,0,0,0,0,0,0,0,0,0,0,0,0,0.9883,0.9884,0,0.9929,0.9929,0.993,0.9942,0.9942,0.9942,0.9942,0.9987,0.9988,0.999,0,0,0,0,0,0,0,0,0,0,0,0,0,0.9807,0.9809,0.9883,0.9884,0.9884,0.9929,0.9929,0.993,0.9942,0.9942,0.9942,0.9941,0.9986,0.9988,0.999,0,0,0,0,0,0,0,0,0,0,0,0,0,0.9845,0.9809,0.9883,0.9896,0.9898,0.9929,0.9929,0.993,0.9942,0.9942,0.9942,0.9941,0.9986,0.9988,0.999,1.0011,0,0,0.9997,0.9998,0,0,0,0,0,0,0,0,0.9843,0.9848,0.9894,0.9895,0.9897,0.993,0.9919,0.9957,0.9943,0.9925,0.9942,0.9941,0.9968,0.9972,0.9981,1.0013,1.0015,0.9997,0.9998,0.9999,1.0,0,0,0,0,0,0,0,0.984,0.9846,0.9901,0.9894,0.9896,0.9899,0.9904,0.9926,0.9948,0.9927,0.9928,0.9933,0.9969,0.9979,0.9982,1.0016,0.9997,0.9999,1.0,1.0001,1.0069,1.0069,0,0,0,0,0,0,0.9836,0.9844,0.99,0.9903,0.9869,0.9901,0.9907,0.9919,0.9948,0.9952,0.9933,0.9934,0.9975,0.998,0.9984,1.0011,0.9999,1.0001,1.0002,1.0068,1.0069,1.007,0,0,0,0,0,0,0.9834,0.984,0.9898,0.9874,0.9881,0.9903,0.9917,0.9921,0.993,0.9953,0.9957,0.994,0.9975,0.9981,1.0005,1.0013,1.0002,1.0004,1.0068,1.0069,1.0069,1.0065,0,0,0,0,0,0,0.9832,0.984,0.9848,0.9874,0.9882,0.9918,0.9918,0.9922,0.9934,0.9935,0.996,0.9964,0.9975,1.0001,1.0007,1.0015,1.0006,1.0067,1.0068,1.0069,1.0064,1.0065,1.0066,0,0,0,0,0,0.9829,0.9844,0.9848,0.9855,0.9893,0.9918,0.9923,0.9937,0.9935,0.9943,0.9958,0.9963,1.0011,1.0004,1.001,1.0019,1.0067,1.0068,1.0069,1.0064,1.0065,1.0066,0,0,0,0,0,0,0.9818,0.9848,0.9853,0.9877,0.9895,0.992,0.9931,0.9938,0.9956,0.9956,0.9972,0.9977,1.0,1.0012,1.0004,1.0042,1.0039,1.0041,1.0033,1.0034,1.0035,1.0031,1.0008,0,0,0,0,0,0.9819,0.9837,0.9862,0.9881,0.989,0.9909,0.9921,0.993,0.9949,0.9957,0.9973,0.9992,1.0011,1.0023,1.0042,1.0066,1.0072,1.0076,1.0077,1.0078,1.0079,1.0094,1.0096,1.0073,1.0073,1.0073,0,0,0.982,0.9838,0.9849,0.9879,0.9894,0.9913,0.9915,0.9935,0.9949,0.996,0.9983,0.9996,1.0018,1.0042,1.0054,1.0053,1.0087,1.0079,1.0079,1.0081,1.0095,1.0097,1.0099,1.0074,1.0074,1.0074,0,0,0.9831,0.9847,0.9865,0.9881,0.9904,0.9917,0.9921,0.9946,0.9955,0.998,0.9988,1.0005,1.0038,1.0054,1.0066,1.0085,1.009,1.0091,1.0095,1.0109,1.0111,1.0112,1.0119,1.0122,1.0092,1.0092,1.0092,0,0.9829,0.9858,0.9873,0.9893,0.9906,0.9918,0.9936,0.995,0.9978,0.9987,0.9986,1.0029,1.0044,1.0073,1.0077,1.0087,1.0092,1.0087,1.0109,1.0111,1.0113,1.012,1.0122,1.0092,1.0092,1.0092,1.0092,0,0.9855,0.9875,0.9886,0.9914,0.9929,0.9948,0.9966,0.9979,0.9987,1.0,1.0025,1.0045,1.0068,1.0076,1.0083,1.0106,1.0104,1.0106,1.0104,1.0115,1.0121,1.0124,1.0092,1.0092,1.0092,1.0092,0,0,0.9859,0.9897,0.99,0.9914,0.9941,0.9957,0.9976,1.0,1.0011,1.0031,1.0048,1.0076,1.0078,1.0092,1.0102,1.0114,1.0129,1.0115,1.0115,1.0117,1.0155,1.0153,1.0156,1.0133,1.0133,1.0134,1.0153,0,0.9874,0.991,0.9925,0.9953,0.9972,0.9984,1.0002,1.002,1.0034,1.0052,1.0066,1.0086,1.0087,1.0096,1.0109,1.0124,1.0137,1.0123,1.0149,1.0149,1.0142,1.0159,1.0157,1.0174,1.0156,1.0156,1.0156,0,0.9896,0.9916,0.9947,0.9973,0.9982,0.9997,1.002,1.0037,1.0059,1.0068,1.0084,1.0094,1.0116,1.0112,1.0142,1.0133,1.0145,1.0154,1.0155,1.0157,1.0153,1.0162,1.018,1.0182,1.0161,1.016,1.016,0,0.9896,0.9931,0.9955,0.9965,0.9997,1.0007,1.002,1.0042,1.0056,1.0077,1.0086,1.0108,1.0121,1.0138,1.0154,1.015,1.0183,1.0181,1.0191,1.019,1.0196,1.0195,1.0216,1.0204,1.0204,1.0204,1.0204,0,0.9911,0.9929,0.9955,0.9969,0.9991,1.0008,1.0029,1.0043,1.0062,1.008,1.0092,1.0108,1.0128,1.0146,1.0159,1.0182,1.0188,1.0195,1.0198,1.0194,1.0193,1.0201,1.02,1.0205,1.0205,1.0204,1.0204,0,0.9914,0.9932,0.9958,0.9986,0.9994,1.0008,1.0032,1.0047,1.0061,1.0083,1.0089,1.0112,1.0134,1.0152,1.0182,1.019,1.0215,1.0218,1.0207,1.0209,1.0218,1.0217,1.0244,1.0248,1.0234,1.0234,1.0234,0,0.9922,0.9936,0.9966,0.9979,0.9992,1.0013,1.0027,1.0045,1.006,1.0087,1.0098,1.0122,1.0142,1.0178,1.0197,1.022,1.0224,1.0232,1.0227,1.0223,1.0224,1.0223,1.0224,1.0232,1.0232,1.0232,1.0232,0,0.9934,0.9943,0.9963,0.9987,1.0004,1.0023,1.0043,1.0053,1.0075,1.0091,1.0114,1.013,1.0161,1.0184,1.021,1.0224,1.0232,1.0234,1.0237,1.0233,1.0226,1.023,1.0209,1.0233,1.0233,1.0233,1.0233,1.0233,0.994,0.9953,0.9977,0.9999,1.0017,1.0035,1.005,1.0067,1.0087,1.0114,1.0124,1.0149,1.0171,1.0206,1.0221,1.024,1.0241,1.0246,1.0247,1.0248,1.0247,1.0223,1.0245,1.0245,1.0245,1.0245,1.0245,0,0.9952,0.9968,0.9989,1.0017,1.0035,1.0042,1.0064,1.0079,1.01,1.0121,1.0141,1.0169,1.0192,1.0214,1.0238,1.025,1.0254,1.0256,1.0255,1.0258,1.0246,1.024,1.0252,1.0252,1.0252,1.0252,1.0252,1.0252,0.9961,0.9985,0.9996,1.0029,1.0045,1.007,1.0082,1.01,1.0116,1.0147,1.0167,1.0181,1.0202,1.0229,1.0251,1.0257,1.0265,1.0265,1.0272,1.026,1.0259,1.0258,1.0253,1.0267,1.0267,1.0283,1.0283,1.0283]},{"header":{"parameterUnit":"m.s-1","parameterCategory":1,"la1":30.2991,"la2":30.254,"lo1":-89.0895,"lo2":-89.0444,"dy":0.0017,"dx":0.0017,"nx":28,"ny":28,"refTime":"2025-12-19T09:00:00:Z","depth":0,"parameterNumber":3,"parameterNumberName":"V-component_of_WINDS"},"data":[0,0,0,0,0,0,0,0,0,0,0,0,0,0,0,0,0,0,0,0,0,0,0,0,0,0,0,0,0,0,0,0,0,0,0,0,0,0,0,0,0,0,0,0,0,0,0,0,0,0,0,0,0,0,0,0,0,0,-5.7205,-5.7207,0,-5.7409,-5.7411,-5.7413,-5.7383,-5.7379,-5.7376,-5.7373,-5.758,-5.7589,-5.7597,0,0,0,0,0,0,0,0,0,0,0,0,0,-5.6789,-5.6797,-5.7205,-5.7207,-5.721,-5.7408,-5.7411,-5.7414,-5.7383,-5.7379,-5.7375,-5.7371,-5.7577,-5.7588,-5.7598,0,0,0,0,0,0,0,0,0,0,0,0,0,-5.6979,-5.6799,-5.7204,-5.7219,-5.7222,-5.7408,-5.7411,-5.7415,-5.7384,-5.7379,-5.7374,-5.7369,-5.7574,-5.7587,-5.76,-5.7784,0,0,-5.764,-5.7645,0,0,0,0,0,0,0,0,-5.6968,-5.6994,-5.7214,-5.7218,-5.7222,-5.7365,-5.7341,-5.7539,-5.7386,-5.7323,-5.7373,-5.7367,-5.7513,-5.7531,-5.758,-5.7794,-5.7803,-5.7641,-5.7649,-5.7654,-5.7658,0,0,0,0,0,0,0,-5.6955,-5.6985,-5.7285,-5.7217,-5.7222,-5.7215,-5.7236,-5.7378,-5.7444,-5.7328,-5.7326,-5.7351,-5.7514,-5.7568,-5.7585,-5.7806,-5.764,-5.7652,-5.766,-5.7665,-5.8184,-5.819,0,0,0,0,0,0,-5.6938,-5.6974,-5.7279,-5.7291,-5.708,-5.7227,-5.725,-5.7324,-5.7443,-5.7456,-5.7355,-5.7348,-5.7548,-5.757,-5.7592,-5.7818,-5.7654,-5.7667,-5.7674,-5.8178,-5.8185,-5.8192,0,0,0,0,0,0,-5.6929,-5.6965,-5.7271,-5.7133,-5.7171,-5.7239,-5.7323,-5.7331,-5.7385,-5.7463,-5.7475,-5.7398,-5.7545,-5.7574,-5.7737,-5.7825,-5.7673,-5.7684,-5.8171,-5.818,-5.8189,-5.8271,0,0,0,0,0,0,-5.6917,-5.6962,-5.7033,-5.7135,-5.7178,-5.7413,-5.7328,-5.7339,-5.7408,-5.7401,-5.7506,-5.7519,-5.7543,-5.7718,-5.775,-5.784,-5.7695,-5.8164,-5.8175,-5.8186,-5.8261,-5.8282,-5.8299,0,0,0,0,0,-5.6903,-5.7047,-5.7037,-5.7074,-5.7268,-5.7418,-5.7443,-5.7468,-5.7415,-5.7487,-5.7537,-5.7515,-5.781,-5.7735,-5.7771,-5.7866,-5.8158,-5.8172,-5.8185,-5.8252,-5.8277,-5.8299,0,0,0,0,0,0,-5.6953,-5.7061,-5.705,-5.7232,-5.7316,-5.7412,-5.7504,-5.7494,-5.7595,-5.7584,-5.7611,-5.7635,-5.7802,-5.785,-5.7765,-5.8053,-5.7977,-5.7998,-5.8015,-5.804,-5.8059,-5.8045,-5.7706,0,0,0,0,0,-5.6986,-5.7098,-5.7186,-5.7338,-5.7381,-5.7435,-5.7501,-5.7514,-5.7602,-5.7637,-5.7699,-5.7786,-5.7898,-5.7971,-5.8078,-5.8267,-5.8291,-5.835,-5.837,-5.8385,-5.8404,-5.851,-5.8538,-5.8235,-5.8235,-5.8235,0,0,-5.7053,-5.7126,-5.7195,-5.735,-5.7417,-5.7534,-5.7465,-5.7591,-5.7679,-5.7656,-5.7816,-5.7865,-5.7962,-5.814,-5.8222,-5.8186,-5.8493,-5.8402,-5.8414,-5.8424,-5.8527,-5.8555,-5.8581,-5.8244,-5.8243,-5.8241,0,0,-5.7238,-5.7303,-5.7438,-5.7507,-5.7609,-5.7645,-5.7678,-5.7776,-5.7809,-5.7969,-5.7956,-5.8059,-5.8251,-5.8323,-5.8384,-5.8598,-5.8582,-5.8631,-5.8733,-5.8836,-5.886,-5.8882,-5.896,-5.8988,-5.8649,-5.865,-5.865,0,-5.7309,-5.7485,-5.7509,-5.7638,-5.7707,-5.7693,-5.7831,-5.7896,-5.8028,-5.8076,-5.8034,-5.8277,-5.8341,-5.8537,-5.859,-5.8639,-5.8678,-5.8621,-5.8855,-5.8876,-5.8897,-5.8972,-5.9002,-5.8655,-5.8654,-5.8654,-5.8653,0,-5.757,-5.7692,-5.7788,-5.7918,-5.7998,-5.813,-5.8175,-5.8253,-5.8258,-5.8299,-5.8464,-5.8541,-5.8665,-5.8712,-5.8718,-5.891,-5.8885,-5.8848,-5.8773,-5.8931,-5.9003,-5.9031,-5.8663,-5.8661,-5.8659,-5.8658,0,0,-5.7792,-5.7934,-5.7969,-5.8029,-5.8142,-5.8237,-5.8369,-5.8492,-5.856,-5.8651,-5.8764,-5.8928,-5.8896,-5.8966,-5.8979,-5.907,-5.9238,-5.9023,-5.9025,-5.9062,-5.9457,-5.9486,-5.9519,-5.9227,-5.9232,-5.9237,-5.945,0,-5.7989,-5.8224,-5.825,-5.846,-5.8574,-5.8563,-5.8679,-5.8761,-5.8802,-5.8906,-5.8951,-5.9068,-5.9015,-5.9058,-5.9146,-5.9198,-5.9317,-5.9183,-5.9334,-5.9339,-5.9312,-5.9555,-5.9586,-5.9783,-5.9477,-5.9482,-5.9486,0,-5.825,-5.8351,-5.8573,-5.8673,-5.8722,-5.8825,-5.8941,-5.9039,-5.9133,-5.9156,-5.9236,-5.9238,-5.9376,-5.9294,-5.9485,-5.9393,-5.9456,-5.9491,-5.9499,-5.9516,-5.9424,-5.9582,-5.9846,-5.9877,-5.9529,-5.9526,-5.9523,0,-5.8394,-5.8585,-5.8743,-5.8794,-5.8913,-5.8987,-5.904,-5.9128,-5.9201,-5.9302,-5.935,-5.9464,-5.9528,-5.9617,-5.9651,-5.9588,-5.9842,-5.9761,-5.9867,-5.9867,-5.9923,-5.9919,-6.0204,-5.9959,-5.9958,-5.9958,-5.9957,0,-5.8613,-5.8749,-5.881,-5.8907,-5.9061,-5.9089,-5.9241,-5.929,-5.9369,-5.9477,-5.9473,-5.9574,-5.9612,-5.9719,-5.9746,-5.9902,-5.993,-5.9954,-5.996,-5.9956,-5.9954,-6.0,-5.9988,-5.9966,-5.9964,-5.9962,-5.9961,0,-5.88,-5.8845,-5.9017,-5.9117,-5.9145,-5.9254,-5.9339,-5.9434,-5.9474,-5.9611,-5.9644,-5.9708,-5.9834,-5.9877,-6.0029,-6.0047,-6.023,-6.0223,-6.0199,-6.0201,-6.0305,-6.0296,-6.0631,-6.0678,-6.04,-6.0403,-6.0405,0,-5.8938,-5.9043,-5.9154,-5.9227,-5.9283,-5.9399,-5.9474,-5.9506,-5.9584,-5.97,-5.9782,-5.9907,-6.001,-6.0213,-6.0273,-6.039,-6.0387,-6.0497,-6.0405,-6.0398,-6.0392,-6.0387,-6.0399,-6.0514,-6.0517,-6.052,-6.0521,0,-5.9179,-5.9197,-5.9305,-5.9423,-5.9512,-5.9606,-5.9696,-5.9756,-5.9802,-5.989,-6.002,-6.01,-6.0257,-6.0383,-6.0503,-6.0557,-6.0549,-6.055,-6.0581,-6.0579,-6.0563,-6.0576,-6.0249,-6.0542,-6.054,-6.0539,-6.0538,-6.0537,-5.9348,-5.9442,-5.9536,-5.9657,-5.9729,-5.9815,-5.991,-5.9962,-6.0072,-6.0203,-6.0215,-6.0356,-6.0449,-6.061,-6.067,-6.0781,-6.0751,-6.0795,-6.0807,-6.0818,-6.0828,-6.0543,-6.0803,-6.0802,-6.0802,-6.0801,-6.0801,0,-5.9591,-5.9651,-5.9763,-5.9891,-5.9987,-5.997,-6.007,-6.0152,-6.0276,-6.0363,-6.0465,-6.0616,-6.0738,-6.0808,-6.0931,-6.1007,-6.1006,-6.1038,-6.1034,-6.1048,-6.0846,-6.0809,-6.1037,-6.1037,-6.1037,-6.1037,-6.1037,-6.1037,-5.9729,-5.9889,-5.9918,-6.0114,-6.0173,-6.0313,-6.0372,-6.0451,-6.0521,-6.069,-6.0792,-6.0837,-6.0918,-6.1047,-6.1159,-6.1177,-6.1223,-6.126,-6.1274,-6.1085,-6.1061,-6.1038,-6.1003,-6.1269,-6.1269,-6.1467,-6.1468,-6.147]}]]